Location: *
(47.6569°N, 7.4256°E)
Time: 10:30:43
(UTC+00:00)

Sich 1 Rocket - Pass Details

Date: 14 December 2019
Orbit: 617 x 652 km, 82.5° (Epoch: 26 January)

Event Time Altitude Azimuth Distance (km) Brightness Sun altitude
Rises 16:30:03 0° 359° (N) 2,909 6.8 -8.3°
Reaches altitude 10° 16:32:33 10° 11° (N) 1,995 5.8 -8.7°
Maximum altitude 16:36:23 29° 72° (ENE) 1,150 4.4 -9.3°
Drops below altitude 10° 16:40:12 10° 132° (SE) 1,978 5.9 -9.9°
Sets 16:42:39 0° 144° (SE) 2,879 6.9 -10.2°
